Weather Roundup
Issued by NWS Chicago, IL

Home | Current Version | Previous Version | Graphics & Text | Print | Product List | Glossary On
Versions: 1 2 3 4 5 6 7 8 9 10 11 12 13 14 15 16 17 18 19 20 21 22 23 24 25 26 27 28 29 30 31 32 33 34 35 36 37 38 39 40 41 42 43 44 45 46 47 48 49 50
000
NZUS59 KLOT 010310
HRRLOT

CHICAGO AREA WEATHER ROUNDUP
NATIONAL WEATHER SERVICE CHICAGO/ROMEOVILLE IL
900 PM CST SAT JAN 31 2015

NOTE: "FAIR" INDICATES FEW OR NO CLOUDS BELOW 12,000 FEET WITH NO
SIGNIFICANT WEATHER AND/OR OBSTRUCTIONS TO VISIBILITY.

* THESE STATIONS ARE NOT UNDER NWS QUALITY CONTROL. THEY ALSO MAY NOT
  REPORT WEATHER SUCH AS PRECIPITATION OR FOG.

ILZ005-006-012>014-019>023-010400-
NORTHEAST ILLINOIS

CITY           SKY/WX    TMP DP  RH WIND       PRES   REMARKS
OHARE          LGT SNOW  31  29  92 NE8       30.14F FOG     WCI  23
MIDWAY         LGT SNOW  35  31  85 CALM      30.15F FOG
AURORA         LGT SNOW  33  30  88 SE3       30.14F VSB 3/4
LANSING*       LGT SNOW  32  32  99 S3        30.16F
JOLIET*        HVY RAIN  32  32  99 CALM      30.15F
WAUKEGAN       LGT SNOW  30  28  92 NE7       30.16F FOG     WCI  23
DUPAGE AIRPORT LGT SNOW  33  31  92 E3        30.13F FOG
WHEELING       LGT SNOW  31  27  85 CALM      30.17F FOG
KANKAKEE*      DRIZZLE   33  32  96 S9        30.17F WCI  25
MORRIS*        MIX PCPN  33  33 100 SW5       30.15S WCI  29
LEWIS AIRPORT* LGT SNOW  32  32 100 S3        30.14F
NORTHERLY IS     N/A     32  28  86 NE1         N/A
$$

WIZ051-052-058>065-066-070>072-010400-
SOUTHEAST WISCONSIN

CITY           SKY/WX    TMP DP  RH WIND       PRES   REMARKS
MILWAUKEE      LGT SNOW  31  25  78 NE10      30.17F WCI  22
KENOSHA*       LGT SNOW  31  27  85 NE12      30.17S FOG     WCI  22
RACINE*        LGT SNOW  30  26  85 NE10      30.19F VSB 1   WCI  21
BURLINGTON     LGT SNOW  29  25  87 E8        30.16F WCI  21
WAUKESHA       LGT SNOW  27  23  86 NE13      30.17F WCI  16
WEST BEND      CLOUDY    27  21  80 NE10      30.18F WCI  17
$$

INZ001>003-010>013-019-020-010400-
NORTHWEST INDIANA

CITY           SKY/WX    TMP DP  RH WIND       PRES   REMARKS
GARY*          RAIN      35  31  87 CALM      30.16F
MICHIGAN CITY* NOT AVBL
RENSSELAER*    NOT AVBL
VALPARAISO     LGT SNOW  32  32 100 SW5       30.16F FOG     WCI  27
$$

LMZ740>746-010400-
SOUTHERN LAKE MICHIGAN

STATION/POSITION TIME  SKY/WX   TEMP WIND        PRES    VSBY
                                AIR  DIR/SP/G
                 (UTC)          (F)  (DEG/KT/KT) (MB)    (MI)
HARRISON CRIB    0300            32   70/  7/  9   N/A
BURNHAM HARBOR   0300            32   60/  4       N/A
CALUMET HARBOR   0300            33     CALM       N/A
BURNS HARBOR     NOT AVBL
MICHIGAN CITY    0300            33  200/  2/  2   N/A
$$

ABBREVIATIONS USED IN REMARKS
   TC - TEMPERATURE IN CELSIUS
  WCI - WIND CHILL INDEX
   HX - HEAT INDEX
  VSB - VISIBILITY
$$


USA.gov is the U.S. government's official web portal to all federal, state and local government web resources and services.